Regional Weather Roundup
Issued by NWS

Home | Current Version | Previous Version | Text Only | Print | Product List | Glossary On
Versions: 1 2 3 4 5 6 7 8 9 10 11 12 13 14 15 16 17 18 19 20 21 22 23 24 25 26 27 28 29 30 31 32 33 34 35 36 37 38 39 40 41 42 43 44 45 46 47 48 49 50
000
ASCA44 KEWX 111320
RWRMX

LATIN AMERICA AND CARIBBEAN REGIONAL WEATHER ROUNDUP
NATIONAL WEATHER SERVICE AUSTIN/SAN ANTONIO TX
700 AM CST MON DEC 11 2017

NOTE: "FAIR" INDICATED FEW OR NO CLOUDS BELOW 12,000 FEET WITH NO
SIGNIFICANT WEATHER AND/OR OBSTRUCTIONS TO VISIBILITY.

BAJA CALIFORNIA

CITY           SKY/WX    TMP DP  RH WIND       PRES   REMARKS
LA PAZ         PTCLDY    68  61  77 N8        30.12
S.J. DEL CABO  PTCLDY    70  61  73 W12       30.10
TIJUANA        MOCLDY    59  12  15 SE5       30.16S

NORTHWESTERN MEXICO

CITY           SKY/WX    TMP DP  RH WIND       PRES   REMARKS
CULIACAN       CLOUDY    68  45  42 NE5       30.07
DURANGO        CLOUDY    32  21  64 CALM      30.46
HERMOSILLO     CLOUDY    64  28  25 E5        30.14
CD. JUAREZ     MOCLDY    37  28  70 CALM      30.43
OBREGON        RAIN      61  50  67 N6        30.11

NORTHEASTERN MEXICO

CITY           SKY/WX    TMP DP  RH WIND       PRES   REMARKS
MONCLOVA       CLEAR     48  37  66 S8        30.35  WCI  45
MONTERREY      MOCLDY    46  37  71 W7        30.37S WCI  43
REYNOSA        PTCLDY    39  37  93 CALM      30.38
SALTILLO       MOCLDY    41  34  75 N7        30.44  WCI  36
TORREON        MOCLDY    41  34  75 CALM      30.41
CD. VICTORIA   CLEAR     37  30  75 MISG      30.40

WESTERN MEXICO

CITY           SKY/WX    TMP DP  RH WIND       PRES   REMARKS
AGUASCALIENTES MOCLDY    32  14  47 NE6       30.46  WCI  26
COLIMA         MOCLDY    64  43  45 NE16      30.16
DEL BAJIO      MOCLDY    39  16  38 NE9       30.47S WCI  33
GUADALAJARA      N/A    N/A N/A N/A MISG        N/A
MAZATLAN       CLOUDY    64  52  63 CALM      30.04S
P. VALLARTA    MOCLDY    64  50  59 NE5       30.03R
URUAPAN        CLOUDY    46  41  81 CALM      30.29
ZACATECAS      MOCLDY    28  16  59 CALM      30.45

CENTRAL MEXICO

CITY           SKY/WX    TMP DP  RH WIND       PRES   REMARKS
CUERNAVACA       N/A    N/A N/A N/A MISG        N/A
MEXICO CITY    PTCLDY    30  19  64 NE8       30.49R WCI  23
MORELIA        PTCLDY    30  25  80 CALM      30.43
POZA RICA      PTCLDY    48  45  87 W5        30.42  WCI  46
QUERETARO      MOCLDY    27  19  74 CALM      30.51S
S. LUIS POTOSI PTCLDY    28  12  50 CALM      30.47R
TOLUCA         PTCLDY    23  19  86 CALM      30.49R

SOUTHERN MEXICO

CITY           SKY/WX    TMP DP  RH WIND       PRES   REMARKS
ACAPULCO       PTCLDY    73  64  73 NE8       30.02R
B. DE HUATULCO   N/A    N/A N/A N/A MISG        N/A
OAXACA         MOCLDY    36  30  80 N6        30.48R WCI  31
P. ESCONDIDO   CLEAR     73  45  35 CALM      30.12S
VERACRUZ       PTCLDY    54  45  71 W5        30.36R
ZIHUATANEJO    PTCLDY    73  68  83 CALM      30.04

YUCATAN PENINSULA

CITY           SKY/WX    TMP DP  RH WIND       PRES   REMARKS
CAMPECHE       MOCLDY    59  57  94 CALM      30.28R
CANCUN         MOCLDY    61  59  94 NW3       30.25R
CHETUMAL       MOCLDY    55  54  94 CALM      30.28
CD. DEL CARMEN MOCLDY   N/A N/A N/A S5        30.31
COZUMEL        MOCLDY    72  63  73 N24       30.23
MERIDA         MOCLDY    59  54  82 CALM      30.30R
MINATITLAN     CLOUDY    61  59  94 CALM      30.28
TAPACHULA      MOCLDY    73  70  88 CALM      29.99R
TUX. GUTIERREZ MOCLDY    48  48 100 MISG      30.30R
VILLAHERMOSA   CLOUDY    63  63 100 CALM      30.31R

CENTRAL AMERICA

CITY           SKY/WX    TMP DP  RH WIND       PRES   REMARKS
BELIZE CITY    PTCLDY    61  59  94 W3        30.27F
MANAGUA        MOSUNNY   68  61  77 S5        29.97

CARIBBEAN

CITY           SKY/WX    TMP DP  RH WIND       PRES   REMARKS
ARUBA          MOSUNNY   84  73  70 E7        29.92S HX  91
CURACAO        MOSUNNY   82  70  65 E6        29.94R
KINGSTON       LGT RAIN  75  75 100 N10       29.97R
NASSAU         PTSUNNY   70  52  52 N10       30.19R
SAN JUAN       MOSUNNY   81  72  74 NE10      29.97
SANTO DOMINGO  MOSUNNY   77  75  94 N5        29.97R
ST. CROIX      MOSUNNY   81  73  78 NE8       29.95
ST. KITTS      LGT RAIN  81  73  78 NE14      29.92S
ST. MAARTEN    MOSUNNY   82  70  65 NE13      29.94S
ST. THOMAS       N/A    N/A N/A N/A MISG      29.96

$$





USA.gov is the U.S. government's official web portal to all federal, state and local government web resources and services.